FW8999 Weather Reports


time (UTC)temp
C
wind
direction
speed
KPH
gust
KPH
rain 1hr
cm
rain 24hr
cm
rain mn
cm
humidity
%
barometer
mb
20260505174039 26 276 6.4 9.7 0.00 0.00 0.00 40 1012.5
20260505173039 27 346 1.6 3.2 0.00 0.00 0.00 42 1013.2
20260505172038 27 262 0.0 0.0 0.00 0.00 0.00 41 1013.3
20260505171036 26 202 6.4 9.7 0.00 0.00 0.00 43 1013.4
20260505170035 26 184 4.8 4.8 0.00 0.00 0.00 43 1013.7
20260505165032 26 229 1.6 1.6 0.00 0.00 0.00 44 1014.0
20260505164032 25 248 4.8 8.0 0.00 0.00 0.00 43 1014.1
20260505163027 25 352 0.0 0.0 0.00 0.00 0.00 44 1014.4
20260505162023 24 181 6.4 8.0 0.00 0.00 0.00 45 1014.7
20260505161023 24 162 4.8 4.8 0.00 0.00 0.00 46 1015.1
20260505153014 22 285 3.2 4.8 0.00 0.00 0.00 47 1015.8
20260505152013 22 253 1.6 1.6 0.00 0.00 0.00 47 1015.8
20260505151011 22 200 3.2 4.8 0.00 0.00 0.00 49 1016.0
20260505124943 16 358 0.0 0.0 0.00 0.00 0.00 63 1016.6
20260505123942 15 0 0.0 0.0 0.00 0.00 0.00 66 1016.9
20260505122940 14 354 0.0 0.0 0.00 0.00 0.00 67 1016.8
20260505121940 13 358 0.0 0.0 0.00 0.00 0.00 72 1016.6
20260505120938 11 11 0.0 0.0 0.00 0.00 0.00 76 1016.9
20260505115934 10 34 0.0 0.0 0.00 0.00 0.00 83 1016.6
20260505114929 8 34 0.0 0.0 0.00 0.00 0.00 85 1016.3
20260505113927 7 30 0.0 0.0 0.00 0.00 0.00 86 1016.9
20260505112926 7 27 0.0 0.0 0.00 0.00 0.00 89 1017.0
20260505111925 6 26 0.0 0.0 0.00 0.00 0.00 90 1016.9
20260505110922 6 31 0.0 0.0 0.00 0.00 0.00 90 1017.0
20260505101914 5 27 0.0 0.0 0.00 0.00 0.00 92 1016.9
20260505100910 5 27 0.0 0.0 0.00 0.00 0.00 91 1017.0
20260505095908 5 27 0.0 0.0 0.00 0.00 0.00 91 1017.0
20260505094908 5 26 0.0 0.0 0.00 0.00 0.00 91 1016.8
20260505093907 6 26 0.0 0.0 0.00 0.00 0.00 90 1017.0
20260505092907 6 13 0.0 0.0 0.00 0.00 0.00 90 1017.0
20260505091902 6 18 0.0 0.0 0.00 0.00 0.00 90 1017.0
20260505090858 6 24 0.0 0.0 0.00 0.00 0.00 90 1017.0
20260505085853 6 353 0.0 0.0 0.00 0.00 0.00 89 1016.8
20260505084848 6 352 0.0 0.0 0.00 0.00 0.00 88 1017.0
20260505083844 6 357 0.0 0.0 0.00 0.00 0.00 87 1016.9
20260505082843 7 354 0.0 0.0 0.00 0.00 0.00 86 1017.0
20260505081842 7 358 0.0 0.0 0.00 0.00 0.00 84 1017.2
20260505080841 8 343 0.0 0.0 0.00 0.00 0.00 82 1017.0
20260505075839 11 349 0.0 0.0 0.00 0.00 0.00 74 1017.1
20260505074839 12 110 0.0 0.0 0.00 0.00 0.00 67 1017.0
20260505073839 12 327 0.0 0.0 0.00 0.00 0.00 67 1017.2
20260505072840 12 266 0.0 1.6 0.00 0.00 0.00 66 1017.3
20260505071838 12 19 0.0 0.0 0.00 0.00 0.00 66 1017.2
20260505070833 12 263 0.0 0.0 0.00 0.00 0.00 65 1017.1
20260505065830 12 0 0.0 0.0 0.00 0.00 0.00 66 1017.2
20260505064830 12 6 0.0 0.0 0.00 0.00 0.00 66 1017.1
20260505063825 12 17 0.0 0.0 0.00 0.00 0.00 66 1017.5
20260505062823 12 188 0.0 0.0 0.00 0.00 0.00 65 1017.4
20260505061823 12 149 0.0 0.0 0.00 0.00 0.00 65 1017.3
20260505060819 12 13 0.0 0.0 0.00 0.00 0.00 68 1017.3
20260505055817 10 234 0.0 0.0 0.00 0.00 0.00 72 1017.4
20260505054817 9 182 0.0 0.0 0.00 0.00 0.00 77 1017.3
20260505053812 8 223 0.0 0.0 0.00 0.00 0.00 80 1017.2
20260505052811 7 21 0.0 0.0 0.00 0.00 0.00 85 1017.1
20260505051810 7 188 0.0 0.0 0.00 0.00 0.00 85 1017.1
20260505050806 7 62 0.0 0.0 0.00 0.00 0.00 85 1017.2
20260505040803 8 352 0.0 0.0 0.00 0.00 0.00 85 1016.7
20260505035803 8 24 0.0 0.0 0.00 0.00 0.00 82 1016.8
20260505034802 8 54 1.6 3.2 0.00 0.00 0.00 83 1016.7
20260505033802 9 38 0.0 0.0 0.00 0.00 0.00 80 1016.3
20260505032757 9 32 0.0 0.0 0.00 0.00 0.00 78 1016.2
20260505031756 9 19 0.0 0.0 0.00 0.00 0.00 79 1016.3
20260505030756 10 12 0.0 0.0 0.00 0.00 0.00 78 1016.2
20260505025753 10 316 0.0 0.0 0.00 0.00 0.00 79 1016.3
20260505024749 10 319 0.0 0.0 0.00 0.00 0.00 79 1016.0
20260505023749 10 318 0.0 0.0 0.00 0.00 0.00 75 1016.3
20260505022749 10 319 0.0 0.0 0.00 0.00 0.00 77 1016.2
20260505021748 11 318 0.0 0.0 0.00 0.00 0.00 76 1016.2
20260505020747 11 319 0.0 0.0 0.00 0.00 0.00 76 1016.1
20260505015745 11 318 0.0 0.0 0.00 0.00 0.00 71 1016.1
20260505014745 12 318 0.0 0.0 0.00 0.00 0.00 67 1016.2
20260505013745 12 10 0.0 0.0 0.00 0.00 0.00 68 1016.0
20260505012740 12 10 0.0 0.0 0.00 0.00 0.00 68 1016.0
20260505011739 13 50 0.0 0.0 0.00 0.00 0.00 68 1015.7
20260505010737 13 50 0.0 0.0 0.00 0.00 0.00 71 1015.9
20260505005737 13 54 0.0 0.0 0.00 0.00 0.00 67 1015.7
20260505004737 13 54 0.0 0.0 0.00 0.00 0.00 63 1015.3
20260505003736 13 54 0.0 0.0 0.00 0.00 0.00 62 1015.1
20260505002736 14 54 0.0 0.0 0.00 0.00 0.00 60 1015.1
20260505001737 14 54 0.0 0.0 0.00 0.00 0.00 57 1014.7
20260505000736 15 54 0.0 0.0 0.00 0.00 0.00 52 1014.7
20260504235731 16 53 0.0 0.0 0.00 0.00 0.00 55 1014.5
20260504234730 16 53 0.0 0.0 0.00 0.00 0.00 49 1014.4
20260504233729 17 53 1.6 1.6 0.00 0.00 0.00 49 1014.3
20260504232728 18 2 1.6 1.6 0.00 0.00 0.00 44 1014.0
20260504231728 18 341 1.6 1.6 0.00 0.00 0.00 42 1013.9
20260504230726 18 26 0.0 0.0 0.00 0.00 0.00 43 1014.0
20260504225723 19 250 0.0 0.0 0.00 0.00 0.00 40 1014.0
20260504224722 19 359 0.0 0.0 0.00 0.00 0.00 39 1013.7
20260504223721 20 352 0.0 0.0 0.00 0.00 0.00 38 1013.7
20260504222720 20 312 0.0 0.0 0.00 0.00 0.00 37 1013.5
20260504221720 20 340 1.6 3.2 0.00 0.00 0.00 38 1013.5
20260504220719 20 287 1.6 1.6 0.00 0.00 0.00 37 1013.8
20260504215720 20 37 4.8 4.8 0.00 0.00 0.00 38 1013.6
20260504214718 20 25 4.8 4.8 0.00 0.00 0.00 37 1013.7
20260504213717 20 262 4.8 4.8 0.00 0.00 0.00 37 1013.6
20260504212717 20 348 0.0 1.6 0.00 0.00 0.00 39 1013.7
20260504211717 20 26 3.2 3.2 0.00 0.00 0.00 38 1013.7
20260504210716 20 312 4.8 4.8 0.00 0.00 0.00 37 1013.7
20260504205716 20 229 3.2 4.8 0.00 0.00 0.00 40 1013.8
20260504204712 20 334 0.0 0.0 0.00 0.00 0.00 41 1013.7
20260504203708 20 287 1.6 3.2 0.00 0.00 0.00 39 1013.5
20260504202705 20 251 1.6 3.2 0.00 0.00 0.00 40 1013.5
20260504201700 20 59 1.6 3.2 0.00 0.00 0.00 41 1013.7
20260504200655 20 288 0.0 0.0 0.00 0.00 0.00 40 1013.7
20260504195653 20 0 3.2 4.8 0.00 0.00 0.00 40 1013.8
20260504194652 19 241 3.2 3.2 0.00 0.00 0.00 41 1013.8
20260504193650 19 238 1.6 1.6 0.00 0.00 0.00 43 1014.0
20260504192646 19 25 4.8 4.8 0.00 0.00 0.00 43 1014.3
20260504191642 18 316 1.6 1.6 0.00 0.00 0.00 45 1014.2
20260504190640 18 7 8.0 9.7 0.00 0.00 0.00 46 1014.5
20260504185639 18 109 0.0 1.6 0.00 0.00 0.00 47 1014.7
20260504184638 17 338 1.6 3.2 0.00 0.00 0.00 47 1014.7
20260504183636 17 350 3.2 3.2 0.00 0.00 0.00 48 1014.9
20260504182631 17 345 6.4 8.0 0.00 0.00 0.00 49 1014.9
20260504181631 16 346 3.2 3.2 0.00 0.00 0.00 51 1014.9
20260504180628 16 355 4.8 4.8 0.00 0.00 0.00 51 1015.1
20260504175629 16 264 1.6 3.2 0.00 0.00 0.00 54 1015.1
20260504174624 15 8 4.8 4.8 0.00 0.00 0.00 54 1015.4